Погода в Магнитогорске

Погода в Магнитогорске : погода сейчас, прогноз погоды и архив. Всё, что Вы хотите узнать о погоде в Магнитогорске!

Хотите узнать прогноз погоды в Магнитогорске? Тогда Вам сюда: Погода в Магнитогорске

Поиск расширенной информации на нашем сайте:

Другие новости

Новости СМИ2

Главная страница сайта

Новости сайта

03.07.2017

Напоминаем, что на нашем специализированном сайте Метеоцентр.Азия вы можете получить высокодетализированные автоматические прогнозы погоды по пунктам России, СНГ и мира в авиационном формате (включающие направление и скорость ветра, видимость, явления погоды, количество и форму облачности, нижнюю и верхнюю границу облачности).


Погода в Магнитогорске - сегодня

Время (UTC), дата Ветер
(°,м/с) 
Видим.   Явления Облачность Т
(°С)
Тd
(°С)
f(%) Тe
(°С)
Pmin
(гПа)
dP
(гПа)
Po
(мм)
O2
(г/м3)
Тmin Tmax R s Состояние
почвы
09 17.04.18 270 (З) 20000 м    8/0 верхняя 
[Cs]
+8.4 -4.6 39 +8  1017.6  -0.2  728  285           
12 17.04.18 230 (ЮЗ) 20000 м    10/0 верхняя 
[Cs]
+9.9 -6.7 30 +10  1016.6  -0.7  728  284           
18 17.04.18 тихо ()   10 км    10/0 средняя 
[Ac As]
+1.7 -6.4 55 +2  1018.1  1.1  728  292           
21 17.04.18 030 (СВ) 10 км    3/0 средняя 
[Ac trans]
-3.4 -7 76 -3  1018.9  -0.1  728  298           
00 18.04.18 260 (З) 10 км    3/0 средняя 
[Ac trans]
-3.6 -7.8 73 -3  1018.5  -0.4  728  298           
03 18.04.18 320 (СЗ) 20000 м    3/3 1000 м 
[Sc]
+1.7 -8.7 46 1018.7  1.1  729  293  -4.7        влажная 
06 18.04.18 360 (С) 5{10}  20000 м    ясно 
+6.8 -10.4 28 +5  1019.1  1.2  730  288           
09 18.04.18 010 (С) 4{11}  20000 м    4/4 600 м 
[Cu hum]
+8.9 -10.4 24 +8  1019  0.2  730  286           
12 18.04.18 110 (В) 20000 м    3/3 600 м 
[Cu hum]
+9.7 -10 24 +9  1018.5  -0.3  729  285           
15 18.04.18 110 (В) 20000 м    ясно 
+3.9 -6.9 45 +3  1019.4  0.1  729  290    +9.7       
18 18.04.18 140 (ЮВ) 10 км    ясно 
-0.3 -6.2 64 1020.9  0.8  730  295           
21 18.04.18 тихо ()   10 км    ясно 
-3.1 -5.4 84 -3  1020.5  -0.8  729  298           
00 19.04.18 190 (Ю) 10 км    ясно 
-4.2 -5.4 91 -4  1019.9  -0.8  729  299           
03 19.04.18 160 (Ю) 20000 м    3/0 верхняя 
[Ci fib]
-0.4 -2.1 88 -2  1017.3  -1.7  727  294  -5.7        влажная 
06 19.04.18 180 (Ю) 20000 м    6/0 средняя 
[Ac trans]
+5.4 -1.3 62 +4  1015  -1.5  726  287           
09 19.04.18 180 (Ю) 20000 м    9/0 средняя 
[Ac trans]
+9.6 +1.1 55 +9  1012.7  -1.5  725  282           
12 19.04.18 180 (Ю) 20000 м    10/10 1000 м 
[Sc]
+7.7 +4.5 80 +8  1011.4  -1.5  724  283           
18 19.04.18 190 (Ю) 10 км  слаб. дождь  10/10 600 м 
[Ns]
+7 +5.9 93 +6  1009.2  -0.9  723  283           
21 19.04.18 210 (ЮЗ) 10 км  {дождь}  10/10 600 м 
[Sc]
+5.8 +4.3 90 +6  1008.4  -1  722  284           
00 20.04.18 200 (Ю) 10 км  слаб. дождь  10/10 600 м 
[Sc]
+5.4 +4.1 91 +4  1007.1  -1.3  721  284           
03 20.04.18 190 (Ю) 20000 м  {дождь}  10/10 600 м 
[Sc]
+5.6 +4.1 90 +4  1005.3  -1.7  720  283  +5.1      влажная 
06 20.04.18 180 (Ю) 20000 м  {дождь}  10/10 600 м 
[Sc]
+6.1 +4.5 89 +5  1005.3  -0.2  719  283           
09 20.04.18 230 (ЮЗ) 10 км  слаб. дождь  10/10 600 м 
[Sc]
+10.6 +3.8 63 +10  1003.4  -1.1  719  278           
18 20.04.18 290 (З) 10 км  слаб. дождь  10/10 600 м 
[Sc]
+7.5 +4.8 83 +7  1000.1  0.4  716  280           
21 20.04.18 250 (З) 10 км  слаб. дождь  10/10 600 м 
[Ns]
+5.9 +4.6 91 +7  999.1  -1.3  715  281           
Время (UTC), дата Ветер
(°,м/с) 
Видим.   Явления Облачность Т
(°С)
Тd
(°С)
f(%) Тe
(°С)
Pmin
(гПа)
dP
(гПа)
Po
(мм)
O2
(г/м3)
Тmin Tmax R s Состояние
почвы

Для получения пояснительной информации подведите курсор к названию столбца.

ПОГОДА в Магнитогорске - архив

Всё, что Вы хотите узнать о погоде в Магнитогорске - удобно и подробно!

Выберите нужную дату (начиная с 1 января 2015* года) и нажмите кнопку "Найти".
Будут отображены архивные сводки погоды по пункту Магнитогорск, начиная с указанной даты.


Отображать данные в формате CSV (для использования в таблицах Excel)


Внимание! Наш архив погоды предназначен исключительно для личного некоммерческого использования в познавательных целях. Если Вам необходимы официальные справки о состоянии погоды (для производственных, юридических, коммерческих и т.п. целей), обращайтесь в органы Росгидромета.

*Примечание: данная дата относится к архиву по метеостанциям СССР (Россия, СНГ, Балтия).
Архив по метеостанциям Зарубежной Европы и Азии (кроме Китая) хранится 10 дней, по другим регионам земного шара (Китай, Африка, Америка, Австралия, Океания) - 1 день.

Магнитогорск - район местоположения метеостанции


Название, широта, долгота, высота метеостанции:
Магнитогорск 53.3°ш. 59.1°д. 384 м над ур. моря [Российская Федерация]

Дополнительная информация

В oтличие oт бoльшинства пoгoдных сайтoв мы публикуем пoдрoбную метеoинфoрмацию в детальнoм прoфессиoнальнoм фoрмате.

Характеристики температуры и влажнoсти вoздуха измеряются на высoте 2 м в тени вдали oт зданий и деревьев.
Скoрoсть ветра измеряется на высoте 10 м (на урoвне рoста челoвека скoрoсть ветра ниже в 1.5-2 раза). Если метеoстанция нахoдится в гoрoде или в лесу, тo скoрoсть ветра занижена на 2-4 м/с пo сравнению с oткрытым местoм. Скoрoсть ветра над акватoриями крупных рек и oзёр, а также на вершинах хoлмoв на 2-5 м/с выше, чем в oбычных услoвиях.
Атмoсфернoе давление в разных тoчках местнoсти мoжет значительнo oтличаться oт давления на метеoстанции, в зависимoсти oт услoвий рельефа (при пoдъёме на 10 м давление пoнижается примернo на 1 мм рт.ст.).